This is the latest recevied weather packets stored in our database for station/object Dunnningn. If no packets are shown the sender has not sent any weather packets the latest 10 day(s).
| Time | Temp. | Humidity | Pressure | Rain* | Wind** | Luminosity | Snow |
|---|---|---|---|---|---|---|---|
| 1788643931 | 13.89° C | 78% | 1025.6 hPa | 1.78 mm | - | - | - |
| 1788642131 | 15° C | 76% | 1025.3 hPa | 1.78 mm | - | - | - |
| 1788640333 | 15.56° C | 74% | 1024.9 hPa | 1.78 mm | - | - | - |
| 1788638531 | 16.67° C | 72% | 1024.7 hPa | 1.78 mm | - | - | - |
| 1788636732 | 17.78° C | 69% | 1024.5 hPa | 1.78 mm | - | - | - |
| 1788634931 | 18.89° C | 66% | 1024.3 hPa | 1.78 mm | - | - | - |
| 1788633130 | 19.44° C | 63% | 1023.7 hPa | 1.78 mm | - | - | - |
| 1788631331 | 20.56° C | 60% | 1023.6 hPa | 1.78 mm | - | - | - |
| 1788629559 | 21.67° C | 58% | 1023.3 hPa | 1.78 mm | - | - | - |
| 1788627730 | 22.78° C | 56% | 1022.9 hPa | 1.78 mm | - | - | - |
| 1788625931 | 23.89° C | 53% | 1022.9 hPa | 1.78 mm | - | - | - |
| 1788624131 | 24.44° C | 52% | 1022.5 hPa | 1.78 mm | - | - | - |
| 1788622331 | 24.44° C | 51% | 1022.6 hPa | 1.78 mm | - | - | - |
| 1788620530 | 25° C | 48% | 1022.3 hPa | 1.78 mm | - | - | - |
| 1788618730 | 24.44° C | 51% | 1022.4 hPa | 1.78 mm | - | - | - |
| 1788616930 | 24.44° C | 51% | 1022.4 hPa | 1.78 mm | - | - | - |
| 1788615130 | 24.44° C | 51% | 1022.1 hPa | 1.78 mm | - | - | - |
| 1788613330 | 24.44° C | 55% | 1022.4 hPa | 1.78 mm | - | - | - |
| 1788611530 | 24.44° C | 54% | 1022.2 hPa | 1.78 mm | - | - | - |
| 1788609730 | 23.89° C | 57% | 1022 hPa | 1.78 mm | - | - | - |
| 1788607930 | 23.33° C | 57% | 1021.9 hPa | 1.78 mm | - | - | - |
| 1788606130 | 22.78° C | 61% | 1022.2 hPa | 1.78 mm | - | - | - |
| 1788604330 | 21.67° C | 66% | 1021.9 hPa | 1.78 mm | - | - | - |
| 1788602530 | 21.11° C | 68% | 1021.7 hPa | 1.78 mm | - | - | - |
| 1788600731 | 20.56° C | 72% | 1021.6 hPa | 1.78 mm | - | - | - |
* Rain since midnight (hover to see other rain measurements)
** Current wind speed in m/s (hover to see current wind gust speed)